Flag Weather past 2 weeks in Tallahassee, Florida, U.S.A.

Now
40 °F

Clear.


Feels Like: 40 °F
Forecast: 42 / 59 °F
Wind: No wind

Location: Tallahassee Regional Airport

Current Time: Nov 27, 2014 at 6:01:46 AM

Latest Report: Nov 27, 2014 at 4:53 AM


Visibility: 10 mi

Pressure: 30.21 "Hg

Humidity: 83%

Dew point: 35 °F

Location of TallahasseeLocation

Historic Weather in Tallahassee — Graph

°F

Tallahassee temperature yesterday

Maximum temperature yesterday: 63 °F (at 2:53 PM)
Minimum temperature yesterday: 39 °F (at 11:53 PM)
Average temperature yesterday: 51 °F

Past Weeks' High & Low Weather Summary

 TemperatureHumidityPressure
High79 °F (Nov 12, 2:53 PM)93% (Nov 25, 4:01 AM)30.48 "Hg (Nov 25, 4:01 AM)
Low24 °F (Nov 20, 4:53 AM)17% (Nov 19, 3:53 PM)29.78 "Hg (Nov 23, 2:01 PM)
Average55 °F68%30.14 "Hg
* Reported Nov 12 4:53 AM — Nov 27 4:53 AM, Tallahassee, Weather by CustomWeather, © 2014

Note: Actual official high and low records may vary slightly from our data, if they occured in-between our weather recording intervals... More about our weather records

Advertising

Tallahassee weather history for previous 24 hours

 ConditionsComfort  
Time TempWeatherWind HumidityBarometerVisibility
4:53 AM
Nov 27
40 °FClear.No wind83%30.21 "Hg10 mi
3:53 AM40 °FClear.5 mph83%30.20 "Hg10 mi
2:53 AM39 °FClear.No wind82%30.19 "Hg10 mi
1:53 AM39 °FClear.No wind82%30.20 "Hg10 mi
12:53 AM39 °FClear.No wind86%30.21 "Hg10 mi
11:53 PM
Nov 26
39 °FClear.No wind82%30.22 "Hg10 mi
10:53 PM40 °FClear.No wind83%30.21 "Hg10 mi
9:53 PM42 °FClear.No wind79%30.21 "Hg10 mi
8:53 PM44 °FClear.No wind76%30.20 "Hg10 mi
7:53 PM44 °FClear.No wind76%30.19 "Hg10 mi
6:53 PM45 °FClear.No wind76%30.19 "Hg10 mi
5:53 PM51 °FClear.No wind56%30.15 "Hg10 mi
4:53 PM61 °FSunny.6 mph27%30.16 "Hg10 mi
3:53 PM63 °FSunny.12 mph23%30.16 "Hg10 mi
2:53 PM63 °FSunny.13 mph25%30.15 "Hg10 mi
1:53 PM62 °FSunny.17 mph25%30.16 "Hg10 mi
12:53 PM61 °FPassing clouds.15 mph27%30.17 "Hg10 mi
11:53 AM59 °FPassing clouds.12 mph36%30.18 "Hg10 mi
10:53 AM56 °FPassing clouds.10 mph49%30.18 "Hg10 mi
9:53 AM52 °FPassing clouds.9 mph66%30.18 "Hg10 mi
8:53 AM50 °FPassing clouds.12 mph74%30.15 "Hg10 mi
7:53 AM48 °FSunny.7 mph83%30.11 "Hg10 mi
6:53 AM49 °FPassing clouds.8 mph86%30.09 "Hg10 mi
Weather by CustomWeather, © 2014

See weather overviewHow to use our weather pages